イェーガー彗星

290P/Jager (2014)

English version
Home page
Updated on February 8, 2021

---------------------------------------------------------------------

・ プロフィール

符号 290P/2013 N1
検出日 2013年7月12日
検出光度 17.5等
検出者 Krisztian Sarneczky (Konkoly Observatory)

・ 写真集

・ 軌道要素

Epoch 2014 Mar. 4.0 TT = JDT 2456720.5
T 2014 Mar. 12.47584 TT                                 MPCW
q   2.1562489            (2000.0)            P               Q
n   0.06483842     Peri.  180.72438     -0.56075941     -0.78185639
a   6.1364112      Node   303.42398     +0.76128809     -0.35746977
e   0.6486140      Incl.   19.05539     +0.32556003     -0.51079933
P  15.2
From 3640 observations 1998 Oct. 24-2015 Apr. 24, mean residual 0".6.
     Nongravitational parameters A1 = +0.16, A2 = -0.5894.

・ 星図

・ 光度変化

        m1 = 4.0 + 5 logΔ + 25 log r(t + 20)

---------------------------------------------------------------------

軌道要素はM.P.E.C. 2015-Q71に掲載されたものです。
星図はステラナビゲータ Ver.8 (アストロアーツ) で作成したものです。
光度グラフはComet for Windowsで作成したものです。

---------------------------------------------------------------------

Copyright(C) Seiichi Yoshida (comet@aerith.net). All rights reserved.